Location: Goettingen
(51.5300°N, 9.9433°E)
Time: 13:57:56
(UTC+01:00)

ISS - Pass Details

Date: 23 January 2021
Orbit: 418 x 421 km, 51.6° (Epoch: 24 January)

Event Time Altitude Azimuth Distance (km) Brightness Sun altitude
Rises 19:30:36 0° 255° (WSW) 2,368 1.4 -24.0°
Reaches altitude 10° 19:32:41 10° 254° (WSW) 1,506 0.0 -24.3°
Enters shadow 19:34:48 36° 250° (WSW) 694 -2.2 -24.6°
